2022-155C (54253 NORAD) Tracking and Keplerian Element Data

This shows tracking and keplerian element data for the satellite.

Feedback or suggestion? Click here.




ElementValue
Catalog54253
Name2022-155C
Epoch Orbit73
Epoch Day325.104077
Epoch Year2022
RAAN69.7945
Inclination97.537
Eccentricity0.0012651
Argument of Perigee268.5035
Mean Anonmoly214.3795
Mean Motion15.09101247
Decay Rate4.362E-05
L11 54253U 22155C 22325.10407700 .00004362 00000+0 27865-3 0 9992
L22 54253 97.5370 69.7945 0012651 268.5035 214.3795 15.09101247 737



Live tracking and technical data element details for 2022-155C (NORAD 54253). 2022-155C can be tracked NOW for your location showing map with azimuth and elevation plus other details from your city location.







IsCatalogInMostPopularTable: catalog: 54253, numindb: 5
Update: records affected: 1



GetName: 54253 2022-155C

Hit Count: updated at: Sun, 04 Dec 2022 22:03:48 GMT